www.pogodaiklimat.ru

Погода и климат >> Архив погоды >> Германия >> Leuchtturm Alte Weser


ПОГОДА в Leuchtturm Alte Weser

  • Прогноз погоды в Leuchtturm Alte Weser
  • Монитор погоды в Leuchtturm Alte Weser
  • Климат города

АРХИВ ПОГОДЫ в Leuchtturm Alte Weser

Время (UTC), дата Ветер
(напр.,м/с)
 
Видим.   Явления Облачность Т
(С)
Тd
(С)
f
(%)
Тe
(С)
Тes
(С)
Комфортность P
(гПа)
Po
(гПа)
Тmin
(С)
Tmax
(С)
R
(мм)
S
(см)
01 21.03 З 12
{16}
н/о н/о +7.3 +6.0 91 +1 +1 1000.6 996.9
02 21.03 З 11
{14}
н/о н/о +6.9 +5.7 92 +1 +1 1000.7 996.9
03 21.03 З 10
{16}
н/о н/о +7.1 +5.5 90 +1 +1 1001.1 997.4
04 21.03 ЮЗ 9 н/о н/о +6.3 +5.8 97 0 0 1001.4 997.7
05 21.03 ЮЗ 10 н/о н/о +6.0 +5.5 97 -0 -0 1001.4 997.6
06 21.03 ЮЗ 10
{16}
н/о н/о +5.9 +5.5 97 -0 -0 1001.5 997.8 +5.8 +10.8
07 21.03 ЮЗ 11 н/о н/о +6.3 +5.7 96 -0 -0 1001.5 997.7
08 21.03 ЮЗ 11
{13}
н/о н/о +6.8 +5.6 92 +1 +1 1001.9 998.2
09 21.03 ЮЗ 13
{15}
н/о н/о +7.3 +4.9 85 +1 +1 1002.4 998.6
10 21.03 З 17
{23}
н/о н/о +5.4 +3.1 85 -2 -2 1002.8 999.0
11 21.03 З 16
{18}
н/о н/о +6.9 +3.1 77 0 0 1003.3 999.5
12 21.03 З 14
{23}
н/о н/о +6.3 +3.1 80 -1 -1 1004.3 1000.5
13 21.03 З 14
{21}
н/о н/о +6.4 +2.8 78 -0 -0 1005.0 1001.2
14 21.03 З 16
{18}
н/о н/о +6.3 +1.6 72 -1 -1 1005.5 1001.8
15 21.03 З 15
{21}
н/о н/о +6.3 +0.9 68 -0 -0 1006.3 1002.5
17 21.03 З 15
{18}
н/о н/о +6.2 +0.4 66 -1 -1 1007.7 1003.9
16 21.03 З 14
{18}
н/о н/о +6.2 +0.7 68 -0 -0 1006.9 1003.1
18 21.03 З 14
{21}
н/о н/о +6.3 +0.7 67 -0 -0 1008.3 1004.5 +4.9 +7.6
19 21.03 З 15
{18}
н/о н/о +6.5 +0.6 66 -0 -0 1009.2 1005.4
20 21.03 З 11
{17}
н/о н/о +6.3 +1.4 71 0 0 1009.8 1006.0
21 21.03 ЮЗ 11
{19}
н/о н/о +5.9 +1.1 71 -0 -0 1010.2 1006.3
23 21.03 ЮЗ 12
{14}
н/о н/о +5.2 +0.8 73 -1 -1 1011.0 1007.1
22 21.03 ЮЗ 10 н/о н/о +5.1 +0.7 73 -1 -1 1010.7 1006.9
00 22.03 ЮЗ 10
{19}
н/о н/о +5.0 +0.7 74 -1 -1 1011.3 1007.4
01 22.03 ЮЗ 10 н/о н/о +5.1 +0.8 74 -1 -1 1011.3 1007.5
02 22.03 ЮЗ 11
{13}
н/о н/о +5.1 +0.8 74 -1 -1 1011.4 1007.6
03 22.03 ЮЗ 9
{13}
н/о н/о +4.7 +1.1 77 -1 -1 1011.9 1008.0
05 22.03 ЮЗ 10 н/о н/о +4.3 +0.4 76 -2 -2 1012.5 1008.7
04 22.03 ЮЗ 10 н/о н/о +4.4 +1.1 79 -2 -2 1012.0 1008.2
06 22.03 ЮЗ 9
{13}
н/о н/о +4.3 +0.8 78 -2 -2 1013.2 1009.3 +4.1 +6.8
07 22.03 ЮЗ 8 н/о н/о +4.4 +0.7 77 -2 -2 1013.5 1009.6
08 22.03 Ю 8 н/о н/о +4.6 +0.9 77 -1 -1 1014.2 1010.4
09 22.03 Ю 7 н/о н/о +5.3 +0.8 73 0 0 1014.9 1011.1
11 22.03 Ю 6 н/о н/о +7.4 +2.3 70 +3 +3 1015.7 1011.9
10 22.03 Ю 7 н/о н/о +6.2 +0.7 68 +1 +1 1015.2 1011.4
12 22.03 Ю 6 н/о н/о +8.9 -1.1 49 +6 +6 1015.9 1012.1
13 22.03 Ю 6 н/о н/о +9.2 +0.2 53 +6 +6 1015.9 1012.1
14 22.03 Ю 4 н/о н/о +11.0 -0.9 44 +9 +9 1015.9 1012.1
15 22.03 В 4 н/о н/о +11.4 -2.1 39 +10 +10 1015.8 1012.1
17 22.03 СВ 7 н/о н/о +10.0 -0.7 47 +7 +7 1015.7 1012.0
16 22.03 В 3 н/о н/о +12.4 -2.6 35 +11 +11 1015.7 1011.9
18 22.03 СВ 8 н/о н/о +7.6 +3.8 77 +3 +3 1016.4 1012.6 +4.1 +13.1
19 22.03 В 8 н/о н/о +7.8 +2.6 70 +3 +3 1016.9 1013.1
20 22.03 В 9 н/о н/о +8.2 +2.7 68 +4 +4 1016.9 1013.1
21 22.03 В 8 н/о н/о +8.0 +2.3 67 +4 +4 1017.3 1013.5
22 22.03 В 8 н/о н/о +7.7 +0.2 59 +3 +3 1017.9 1014.1
23 22.03 В 7 н/о н/о +7.0 +0.6 64 +3 +3 1018.1 1014.3
00 23.03 В 7 н/о н/о +6.6 +0.9 67 +2 +2 1018.1 1014.2
01 23.03 В 7 н/о н/о +6.1 +0.2 66 +1 +1 1018.1 1014.3
02 23.03 В 8 н/о н/о +6.4 +0.1 64 +1 +1 1018.0 1014.2
03 23.03 В 7 н/о н/о +6.1 +0.6 68 +1 +1 1018.4 1014.6
04 23.03 В 7 н/о н/о +6.1 +1.3 71 +1 +1 1018.5 1014.6
05 23.03 В 8 н/о н/о +5.9 +1.7 74 +1 +1 1018.5 1014.6
06 23.03 В 8 н/о н/о +6.2 +1.2 70 +1 +1 1018.7 1014.9 +5.9 +10.1
07 23.03 СВ 8 н/о н/о +5.9 +1.3 72 +1 +1 1019.4 1015.5
08 23.03 СВ 9 н/о н/о +6.1 +1.3 71 +1 +1 1019.8 1016.0
09 23.03 СВ 9 н/о н/о +6.2 +1.6 72 +1 +1 1020.3 1016.5
10 23.03 СВ 9 н/о н/о +6.5 +2.4 75 +1 +1 1020.5 1016.7
11 23.03 СВ 10 н/о н/о +7.5 +2.4 70 +2 +2 1020.7 1016.9
12 23.03 СВ 9 н/о н/о +8.2 +3.0 70 +3 +3 1021.3 1017.4
13 23.03 СВ 8 н/о н/о +9.1 +2.3 62 +5 +5 1021.0 1017.2
14 23.03 СВ 6 н/о н/о +9.7 +3.7 66 +6 +6 1020.9 1017.1
15 23.03 В 8 н/о н/о +10.2 +1.1 53 +7 +7 1020.8 1017.0
16 23.03 В 8 н/о н/о +9.6 +3.1 64 +6 +6 1021.2 1017.4
17 23.03 В 10 н/о н/о +8.6 +2.3 65 +4 +4 1021.8 1018.0
18 23.03 В 7 н/о н/о +8.2 +2.1 65 +4 +4 1023.3 1019.5 +5.8 +10.3
20 23.03 СВ 7 н/о н/о +7.2 +2.9 74 +3 +3 1025.1 1021.2
19 23.03 В 6 н/о н/о +7.8 +2.7 70 +4 +4 1024.2 1020.4
21 23.03 В 7 н/о н/о +7.0 +2.1 71 +2 +2 1025.7 1021.9
22 23.03 В 7 н/о н/о +6.7 +2.2 73 +2 +2 1026.3 1022.4
23 23.03 В 6 н/о н/о +6.4 +2.9 78 +2 +2 1026.7 1022.8
00 24.03 СВ 6 н/о н/о +6.2 +2.5 77 +2 +2 1027.0 1023.2
02 24.03 СВ 5 н/о н/о +6.0 +2.3 77 +2 +2 1028.3 1024.4
01 24.03 СВ 6 н/о н/о +6.0 +2.6 79 +1 +1 1027.5 1023.7
03 24.03 В 4 н/о н/о +5.9 +2.2 77 +2 +2 1028.7 1024.8
04 24.03 С 4 н/о н/о +6.0 +3.1 82 +2 +2 1029.1 1025.2
05 24.03 С 5 н/о н/о +5.6 +3.4 86 +1 +1 1029.8 1025.9
06 24.03 В 5 н/о н/о +5.6 +3.4 86 +1 +1 1030.4 1026.5 +5.5 +8.7
08 24.03 СВ 5 н/о н/о +5.8 +3.6 86 +1 +1 1031.6 1027.7
07 24.03 СВ 4 н/о н/о +5.7 +3.6 86 +2 +2 1031.1 1027.2
09 24.03 СВ 4 н/о н/о +6.2 +3.7 84 +2 +2 1032.2 1028.3
10 24.03 В 3 н/о н/о +7.3 +3.3 76 +5 +5 1032.2 1028.3
11 24.03 В 2 н/о н/о +7.6 +3.2 74 +6 +6 1032.8 1029.0
12 24.03 С 2 н/о н/о +6.2 +4.0 86 +4 +4 1033.1 1029.2
14 24.03 С 5 н/о н/о +6.4 +3.4 81 +2 +2 1033.4 1029.5
13 24.03 С 2 н/о н/о +6.1 +4.1 87 +4 +4 1033.1 1029.2
15 24.03 С 5 н/о н/о +6.4 +4.8 89 +2 +2 1033.3 1029.4
16 24.03 С 6 н/о н/о +6.5 +4.6 88 +2 +2 1032.8 1029.0
17 24.03 С 7 н/о н/о +6.5 +4.5 87 +1 +1 1032.8 1028.9
18 24.03 С 7 н/о н/о +6.2 +4.5 89 +1 +1 1033.1 1029.2 +5.5 +10.1
19 24.03 С 7 н/о н/о +5.9 +3.1 82 +1 +1 1033.5 1029.6
20 24.03 С 5 н/о н/о +5.9 +1.6 74 +2 +2 1033.8 1029.9
21 24.03 С 6 н/о н/о +5.8 +2.2 78 +1 +1 1034.0 1030.1
22 24.03 С 6 н/о н/о +5.7 +2.4 79 +1 +1 1033.9 1030.0
23 24.03 С 4 н/о н/о +5.6 +3.7 88 +2 +2 1033.9 1030.0
00 25.03 С 2 н/о н/о +5.5 +3.9 89 +3 +3 1033.9 1030.0
01 25.03 СЗ 2 н/о н/о +5.4 +3.8 89 +3 +3 1034.0 1030.1
02 25.03 С 3 н/о н/о +5.4 +4.3 93 +2 +2 1033.8 1029.9
03 25.03 С 3 н/о н/о +5.3 +3.9 91 +2 +2 1033.3 1029.4
04 25.03 СЗ 3 н/о н/о +5.1 +4.4 95 +1 +1 1032.7 1028.8
05 25.03 СЗ 3 н/о н/о +5.2 +4.7 97 +2 +2 1032.3 1028.4
06 25.03 З 5 н/о н/о +5.2 +4.5 95 0 0 1032.4 1028.5 +5.0 +6.5
07 25.03 З 6 н/о н/о +5.3 +4.3 93 0 0 1032.4 1028.5
08 25.03 З 6 н/о н/о +5.4 +4.5 94 0 0 1032.6 1028.7
09 25.03 З 6 н/о н/о +5.6 +4.0 89 +1 +1 1032.5 1028.6
10 25.03 З 6 н/о н/о +5.8 +3.9 88 +1 +1 1032.3 1028.4
11 25.03 С 6 н/о н/о +6.0 +4.1 88 +1 +1 1032.4 1028.5
12 25.03 С 6 н/о н/о +6.0 +4.3 89 +1 +1 1031.8 1027.9
13 25.03 СЗ 6 н/о н/о +6.1 +4.3 88 +1 +1 1031.1 1027.2
14 25.03 СЗ 7 н/о н/о +6.0 +4.7 91 +1 +1 1030.0 1026.1
15 25.03 С 7 н/о н/о +6.0 +4.9 93 +1 +1 1029.4 1025.5
17 25.03 С 5 н/о н/о +6.1 +5.0 93 +2 +2 1028.1 1024.3
16 25.03 С 5 н/о н/о +6.1 +4.9 92 +2 +2 1028.7 1024.8
18 25.03 С 6 н/о н/о +6.2 +5.4 95 +1 +1 1028.0 1024.2 +5.1 +6.2
19 25.03 С 6 н/о н/о +6.4 +5.5 94 +2 +2 1028.0 1024.1
20 25.03 С 5 н/о н/о +6.3 +5.5 95 +2 +2 1028.3 1024.5
21 25.03 С 5 н/о н/о +6.3 +5.4 94 +2 +2 1028.1 1024.2
23 25.03 С 6 н/о н/о +6.0 +5.4 96 +1 +1 1027.4 1023.5
22 25.03 С 6 н/о н/о +6.1 +5.5 96 +1 +1 1027.5 1023.6
00 26.03 С 6 н/о н/о +6.1 +5.3 95 +1 +1 1027.2 1023.3
01 26.03 С 6 н/о н/о +6.3 +5.2 93 +1 +1 1026.9 1023.1
02 26.03 С 5 н/о н/о +6.4 +5.3 93 +2 +2 1026.5 1022.6
03 26.03 С 5 н/о н/о +6.3 +5.3 93 +2 +2 1026.4 1022.5
05 26.03 В 3 н/о н/о +6.4 +5.5 94 +3 +3 1026.1 1022.2
04 26.03 С 5 н/о н/о +6.3 +5.3 93 +2 +2 1026.3 1022.5
06 26.03 СВ 2 н/о н/о +6.6 +5.6 93 +4 +4 1026.2 1022.4 +6.0 +6.6
07 26.03 З 2 н/о н/о +6.5 +5.9 96 +4 +4 1026.5 1022.7
08 26.03 В 2 н/о н/о +7.3 +5.6 89 +5 +5 1026.9 1023.1
09 26.03 В 1 н/о н/о +7.6 +5.4 86 +7 +7 1027.3 1023.4
11 26.03 С 2 н/о н/о +6.3 +5.8 97 +4 +4 1027.6 1023.7
10 26.03 С 2 н/о н/о +6.2 +5.8 97 +4 +4 1027.4 1023.5
12 26.03 С 2 н/о н/о +6.4 +5.9 97 +4 +4 1027.6 1023.7
13 26.03 С 3 н/о н/о +6.3 +5.9 97 +3 +3 1027.4 1023.5
14 26.03 С 3 н/о н/о +6.4 +5.7 95 +3 +3 1027.1 1023.2
15 26.03 С 5 н/о н/о +6.5 +6.0 97 +2 +2 1026.7 1022.9
17 26.03 С 5 н/о н/о +6.1 +5.2 94 +2 +2 1026.5 1022.7
16 26.03 С 5 н/о н/о +6.3 +5.4 94 +2 +2 1026.6 1022.7
18 26.03 С 6 н/о н/о +5.9 +5.2 95 +1 +1 1026.6 1022.7 +5.9 +7.7
19 26.03 С 5 н/о н/о +5.7 +5.2 97 +1 +1 1026.8 1022.9
20 26.03 В 4 н/о н/о +5.6 +5.0 96 +1 +1 1026.9 1023.1
21 26.03 В 4 н/о н/о +5.6 +4.9 95 +1 +1 1027.1 1023.2
22 26.03 В 4 н/о н/о +5.5 +4.9 96 +1 +1 1027.1 1023.3
23 26.03 В 3 н/о н/о +5.5 +4.9 96 +2 +2 1027.2 1023.3
00 27.03 В 3 н/о н/о +5.5 +5.1 97 +2 +2 1027.0 1023.1
01 27.03 СВ 5 н/о н/о +5.4 +5.2 99 +1 +1 1026.7 1022.9
02 27.03 В 4 н/о н/о +4.1 +4.1 100 -1 -1 1026.3 1022.4
03 27.03 В 3 н/о н/о +4.3 +4.3 100 0 0 1026.1 1022.2
04 27.03 В 3 н/о н/о +4.4 +4.4 100 +1 +1 1026.1 1022.2
05 27.03 В 3 н/о н/о +4.5 +4.5 100 +1 +1 1026.0 1022.1
06 27.03 В 3 н/о н/о +4.3 +4.3 100 0 0 1026.0 1022.1 +4.0 +6.1
07 27.03 В 3 н/о н/о +4.9 +4.9 100 +1 +1 1026.3 1022.4
08 27.03 ЮВ 2 н/о н/о +5.7 +5.6 99 +3 +3 1026.4 1022.5
09 27.03 Ю 1 н/о н/о +6.0 +5.3 95 +5 +5 1026.3 1022.4
10 27.03 В 1 н/о н/о +6.9 +5.3 90 +6 +6 1026.5 1022.6
11 27.03 В 2 н/о н/о +8.7 +4.8 76 +7 +7 1026.4 1022.5
12 27.03 В 5 н/о н/о +5.6 +5.2 97 +1 +1 1025.6 1021.7
13 27.03 СВ 5 н/о н/о +4.7 +4.7 100 -0 -0 1024.9 1021.0
14 27.03 С 5 н/о н/о +4.8 +4.8 100 -0 -0 1024.4 1020.5
15 27.03 В 5 н/о н/о +6.6 +6.1 97 +2 +2 1023.8 1019.9
16 27.03 В 5 н/о н/о +5.8 +5.8 100 +1 +1 1023.3 1019.4
17 27.03 СВ 5 н/о н/о +6.6 +5.0 90 +2 +2 1022.8 1018.9
18 27.03 В 6 н/о н/о +6.9 +5.4 90 +2 +2 1022.5 1018.6 +4.3 +8.8
20 27.03 В 6 н/о н/о +7.5 +6.5 93 +3 +3 1022.8 1018.9
19 27.03 В 5 н/о н/о +7.2 +6.6 96 +3 +3 1022.7 1018.9
21 27.03 СВ 6 н/о н/о +7.6 +6.6 93 +3 +3 1022.6 1018.8
22 27.03 СВ 6 н/о н/о +7.5 +6.6 94 +3 +3 1022.5 1018.7
23 27.03 В 4 н/о н/о +7.3 +6.6 95 +4 +4 1022.3 1018.5
00 28.03 СВ 5 н/о н/о +5.4 +5.4 100 +1 +1 1022.0 1018.2
01 28.03 СВ 4 н/о н/о +5.0 +4.9 99 +1 +1 1021.8 1017.9

 

Местоположение метеостанции Leuchtturm Alte Weser (Германия): широта 53.87 долгота 8.13 высота над уровнем моря 32 м.

В архиве по умолчанию представлена погода в Leuchtturm Alte Weser за последнюю неделю. Архивные данные за месяц целиком и за предыдущие месяцы, начиная с января 2011 года, Вы можете получить, выбрав интересующий диапазон дат из раскрывающегося списка и нажав кнопку "Ввод!".

Внимание! Время в таблицах - всемирное. Для получения местного времени необходимо прибавить поправку, которая в Leuchtturm Alte Weser равна 1 ч.

Смотрите также архив погоды в соседних городах и на ближайших метеорологических станциях:

Погода в Nordholz (Германия) (37 км)
Погода в Cuxhaven (Германия) (37 км)
Погода в Helgoland (Германия) (38 км)
Погода в Wittmundhaven (Германия) (47 км)
Погода в Bremerhaven (Германия) (48 км)
Погода в Ufs Deutsche Bucht (Германия) (57 км)
Погода в St Peter-Ording (Германия) (60 км)
Погода в Elpersbuettel (Германия) (62 км)
Погода в Norderney Island (Германия) (67 км)
Погода в Bremervoerde (Германия) (80 км)

Пояснения к столбцам:

Ветер - указаны скорость ветра в м/с - средняя за 10 мин, порывы в срок и между сроками (в фигурных скобках) и направление, откуда дует ветер: С - северный, СВ - северо-восточный, В - восточный, ЮВ - юго-восточный, Ю - южный, ЮЗ - юго-западный, З - западный, СЗ - северо-западный.
Видимость - горизонтальная дальность видимости в метрах или километрах. При видимости от 1 до 10 км при отсутствии осадков обычно наблюдается дымка, при ухудшении видимости до 1 км и менее - туман. В сухую погоду видимость может ухудшаться дымом, пылью или мглою.
Явления - указаны атмосферные явления, наблюдавшиеся в срок или в последний час перед сроком; фигурными скобками обозначены явления, наблюдавшиеся между сроками (за 1-3 часа до срока); квадратными скобками обозначены град или гололедные отложения с указанием их диаметра в мм.
Облачность - указаны через наклонную черту общая и нижняя облачность в баллах и высота нижней границы облаков в метрах; квадратными скобками обозначены формы облаков: Ci - перистые, Cs - перисто-слоистые, Cc - перисто-кучевые, Ac - высококучевые, As - высокослоистые, Sc - слоисто-кучевые, Ns - слоисто-дождевые, Cu - кучевые, Cb - кучево-дождевые. Подробнее классификацию облаков см. в Атласе облаков (PDF).
T - Температура воздуха - температура, измеренная на высоте 2 м над землей.
Td - Температура точки росы - температура, при понижении до которой содержащийся в воздухе водяной пар достигнет насыщения.
f - Относительная влажность воздуха - влажноcть воздуха, измеренная на высоте 2 м над землей.
Te - Эффективная температура - температура, которую ощущает одетый по сезону человек в тени. Характеристика душности погоды. При расчете учитывается влияние влажности воздуха и скорости ветра на теплоощущения человека.
Tes - Эффективная температура на солнце - температура, которую ощущает человек, с поправкой на солнечный нагрев. Характеристика знойности погоды. Зависит от высоты солнца над горизонтом, облачности и скорости ветра. Ночью, в пасмурную погоду, а также при ветре 12 м/с и более поправка равна нулю.
P - Атмосферное давление - приведенное к уровню моря атмосферное давление.
Po - Атмосферное давление - измеренное на уровне метеостанции атмосферное давление.
Tmin - Минимальная температура - минимум температуры воздуха на высоте 2 м над землей.
Tmax - Максимальная температура - максимум температуры воздуха на высоте 2 м над землей.
R - Количество осадков - Количество выпавших осадков, мм. При наведении курсора мыши на число - период времени, за который выпало указанное количество осадков.
S - Снежный покров - Высота снежного покрова, см. При наведении курсора мыши на число - состояние снежного покрова и степень покрытия местности в баллах.